Location: Laterina
(43.5167°N, 11.7167°E)
Time: 16:29:33
(UTC+00:00)

Resurs 01 Rocket - Pass Details

Date: 24 September 2020
Orbit: 633 x 645 km, 98.0° (Epoch: 25 October)

Event Time Altitude Azimuth Distance (km) Brightness Sun altitude
Exits shadow 20:03:26 32° 333° (NNW) 1,113 3.2 -31.3°
Drops below altitude 10° 20:05:53 10° 342° (NNW) 2,048 4.8 -31.7°
Sets 20:08:06 0° 345° (NNW) 2,961 5.7 -32.0°
